status,avgMeasuredTime,avgSpeed,extID,medianMeasuredTime,TIMESTAMP,vehicleCount,_id,REPORT_ID
OK,60,61,742,60,2014-08-01T07:55:00,1,20746466,195015
OK,72,50,742,72,2014-08-01T08:00:00,2,20746797,195015
OK,71,51,742,71,2014-08-01T08:05:00,1,20747246,195015
OK,71,51,742,71,2014-08-01T08:10:00,1,20747619,195015
OK,75,48,742,75,2014-08-01T08:15:00,2,20748068,195015
OK,73,50,742,73,2014-08-01T08:20:00,2,20748517,195015
OK,69,53,742,69,2014-08-01T08:25:00,1,20748966,195015
OK,75,48,742,75,2014-08-01T08:30:00,4,20749415,195015
OK,73,50,742,73,2014-08-01T08:35:00,2,20749864,195015
OK,70,52,742,70,2014-08-01T08:40:00,3,20750313,195015
OK,73,50,742,73,2014-08-01T08:45:00,4,20750762,195015
OK,71,51,742,71,2014-08-01T08:50:00,3,20751211,195015
OK,68,53,742,68,2014-08-01T08:55:00,2,20751660,195015
OK,73,50,742,73,2014-08-01T09:00:00,2,20752109,195015
OK,95,38,742,95,2014-08-01T09:05:00,1,20752558,195015
OK,86,42,742,86,2014-08-01T09:10:00,2,20753007,195015
OK,77,47,742,77,2014-08-01T09:15:00,3,20753456,195015
OK,65,56,742,65,2014-08-01T09:20:00,4,20753905,195015
OK,67,54,742,67,2014-08-01T09:25:00,3,20754354,195015
OK,68,53,742,68,2014-08-01T09:30:00,1,20754803,195015
OK,66,55,742,66,2014-08-01T09:35:00,3,20755252,195015
OK,67,54,742,67,2014-08-01T09:40:00,3,20755701,195015
OK,75,48,742,75,2014-08-01T09:45:00,3,20756150,195015
OK,67,54,742,67,2014-08-01T09:50:00,1,20756599,195015
OK,67,54,742,67,2014-08-01T09:55:00,3,20757048,195015
OK,69,53,742,69,2014-08-01T10:00:00,2,20757497,195015
OK,74,49,742,74,2014-08-01T10:05:00,5,20757946,195015
OK,75,48,742,75,2014-08-01T10:10:00,6,20758395,195015
OK,82,44,742,82,2014-08-01T10:15:00,2,20758844,195015
OK,84,43,742,84,2014-08-01T10:20:00,2,20759293,195015
OK,73,50,742,73,2014-08-01T10:25:00,4,20759742,195015
OK,71,51,742,71,2014-08-01T10:30:00,5,20760191,195015
OK,72,50,742,72,2014-08-01T10:35:00,3,20760640,195015
OK,71,51,742,71,2014-08-01T10:40:00,2,20761089,195015
OK,69,53,742,69,2014-08-01T10:45:00,2,20761538,195015
OK,70,52,742,70,2014-08-01T10:50:00,4,20761987,195015
OK,75,48,742,75,2014-08-01T10:55:00,2,20762436,195015
OK,73,50,742,73,2014-08-01T11:00:00,2,20762885,195015
OK,74,49,742,74,2014-08-01T11:05:00,1,20763334,195015
OK,68,53,742,68,2014-08-01T11:10:00,3,20763783,195015
OK,69,53,742,69,2014-08-01T11:15:00,3,20764232,195015
OK,70,52,742,70,2014-08-01T11:20:00,5,20764680,195015
OK,69,53,742,69,2014-08-01T11:25:00,4,20765129,195015
OK,71,51,742,71,2014-08-01T11:30:00,4,20765578,195015
OK,72,50,742,72,2014-08-01T11:35:00,7,20766027,195015
OK,65,56,742,65,2014-08-01T11:40:00,5,20766476,195015
OK,67,54,742,67,2014-08-01T11:45:00,2,20766925,195015
OK,77,47,742,77,2014-08-01T11:50:00,5,20767374,195015
OK,76,48,742,76,2014-08-01T11:55:00,8,20767823,195015
OK,72,50,742,72,2014-08-01T12:00:00,4,20768272,195015
OK,77,47,742,77,2014-08-01T12:05:00,5,20768721,195015
OK,68,53,742,68,2014-08-01T12:10:00,7,20769170,195015
OK,63,58,742,63,2014-08-01T12:15:00,3,20769619,195015
OK,67,54,742,67,2014-08-01T12:20:00,5,20770068,195015
OK,73,50,742,73,2014-08-01T12:25:00,5,20770517,195015
OK,77,47,742,77,2014-08-01T12:30:00,3,20770966,195015
OK,77,47,742,77,2014-08-01T12:35:00,1,20771415,195015
OK,66,55,742,66,2014-08-01T12:40:00,4,20771864,195015
OK,67,54,742,67,2014-08-01T12:45:00,8,20772313,195015
OK,67,54,742,67,2014-08-01T12:50:00,5,20772762,195015
OK,69,53,742,69,2014-08-01T12:55:00,1,20773211,195015
OK,71,51,742,71,2014-08-01T13:00:00,2,20773660,195015
OK,66,55,742,66,2014-08-01T13:05:00,2,20774109,195015
OK,67,54,742,67,2014-08-01T13:10:00,8,20774558,195015
OK,75,48,742,75,2014-08-01T13:15:00,14,20775007,195015
OK,79,46,742,79,2014-08-01T13:20:00,12,20775456,195015
OK,79,46,742,79,2014-08-01T13:25:00,6,20775905,195015
OK,75,48,742,75,2014-08-01T13:30:00,4,20776354,195015
OK,79,46,742,79,2014-08-01T13:35:00,5,20776803,195015
OK,75,48,742,75,2014-08-01T13:40:00,4,20777252,195015
OK,71,51,742,71,2014-08-01T13:45:00,1,20777701,195015
OK,65,56,742,65,2014-08-01T13:50:00,2,20778150,195015
OK,65,56,742,65,2014-08-01T13:55:00,3,20778599,195015
OK,72,50,742,72,2014-08-01T14:00:00,3,20779048,195015
OK,72,50,742,72,2014-08-01T14:05:00,1,20779497,195015
OK,73,50,742,73,2014-08-01T14:10:00,2,20779946,195015
OK,73,50,742,73,2014-08-01T14:15:00,2,20780395,195015
OK,82,44,742,82,2014-08-01T14:20:00,4,20780844,195015
OK,75,48,742,75,2014-08-01T14:25:00,5,20781293,195015
OK,66,55,742,66,2014-08-01T14:30:00,5,20781742,195015
OK,67,54,742,67,2014-08-01T14:35:00,4,20782191,195015
OK,76,48,742,76,2014-08-01T14:40:00,5,20782640,195015
OK,75,48,742,75,2014-08-01T14:45:00,6,20783089,195015
OK,75,48,742,75,2014-08-01T14:50:00,3,20783538,195015
OK,78,46,742,78,2014-08-01T14:55:00,2,20783987,195015
OK,76,48,742,76,2014-08-01T15:00:00,4,20784436,195015
OK,94,38,742,94,2014-08-01T15:05:00,1,20784885,195015
OK,94,38,742,94,2014-08-01T15:10:00,0,20785334,195015
OK,94,38,742,94,2014-08-01T15:15:00,0,20785783,195015
OK,72,50,742,72,2014-08-01T15:20:00,3,20786232,195015
OK,72,50,742,72,2014-08-01T15:25:00,4,20786681,195015
OK,73,50,742,73,2014-08-01T15:30:00,1,20787130,195015
OK,80,45,742,80,2014-08-01T15:35:00,3,20787579,195015
OK,80,45,742,80,2014-08-01T15:40:00,3,20788028,195015
OK,72,50,742,72,2014-08-01T15:45:00,1,20788477,195015
OK,74,49,742,74,2014-08-01T15:50:00,1,20788926,195015
OK,74,49,742,74,2014-08-01T15:55:00,1,20789375,195015
OK,64,57,742,64,2014-08-01T16:00:00,2,20789824,195015
OK,63,58,742,63,2014-08-01T16:05:00,1,20790273,195015
OK,63,58,742,63,2014-08-01T16:10:00,0,20790722,195015
OK,69,53,742,69,2014-08-01T16:15:00,1,20791171,195015
OK,66,55,742,66,2014-08-01T16:20:00,1,20791620,195015
OK,67,54,742,67,2014-08-01T16:25:00,2,20792069,195015
OK,68,53,742,68,2014-08-01T16:30:00,1,20792518,195015
OK,68,53,742,68,2014-08-01T16:35:00,0,20792967,195015
OK,66,55,742,66,2014-08-01T16:40:00,1,20793416,195015
OK,73,50,742,73,2014-08-01T16:45:00,1,20793865,195015
OK,75,48,742,75,2014-08-01T16:50:00,3,20794314,195015
OK,75,48,742,75,2014-08-01T16:55:00,3,20794763,195015
OK,72,50,742,72,2014-08-01T17:00:00,0,20795212,195015
OK,64,57,742,64,2014-08-01T17:05:00,1,20795661,195015
OK,64,57,742,64,2014-08-01T17:10:00,1,20796110,195015
OK,64,57,742,64,2014-08-01T17:15:00,0,20796559,195015
OK,64,57,742,64,2014-08-01T17:20:00,0,20797008,195015
OK,70,52,742,70,2014-08-01T17:25:00,1,20797457,195015
OK,61,60,742,61,2014-08-01T17:30:00,2,20797906,195015
OK,63,58,742,63,2014-08-01T17:35:00,1,20798355,195015
OK,63,58,742,63,2014-08-01T17:40:00,0,20798804,195015
OK,63,58,742,63,2014-08-01T17:45:00,0,20799253,195015
OK,63,58,742,63,2014-08-01T17:50:00,0,20799702,195015
OK,59,62,742,59,2014-08-01T17:55:00,2,20800151,195015
OK,59,62,742,59,2014-08-01T18:00:00,2,20800600,195015
OK,70,52,742,70,2014-08-01T18:05:00,1,20801049,195015
OK,64,57,742,64,2014-08-01T18:10:00,1,20801498,195015
OK,64,57,742,64,2014-08-01T18:15:00,0,20801947,195015
OK,64,57,742,64,2014-08-01T18:20:00,0,20802396,195015
OK,64,57,742,64,2014-08-01T18:25:00,0,20802845,195015
OK,68,53,742,68,2014-08-01T18:30:00,2,20803294,195015
OK,68,53,742,68,2014-08-01T18:35:00,0,20803743,195015
OK,137,26,742,137,2014-08-01T18:40:00,1,20804192,195015
OK,137,26,742,137,2014-08-01T18:45:00,0,20804641,195015
OK,70,52,742,70,2014-08-01T18:50:00,2,20805090,195015
OK,69,53,742,69,2014-08-01T18:55:00,3,20805539,195015
OK,61,60,742,61,2014-08-01T19:00:00,2,20805988,195015
OK,65,56,742,65,2014-08-01T19:05:00,2,20806437,195015
OK,65,56,742,65,2014-08-01T19:10:00,2,20806886,195015
OK,65,56,742,65,2014-08-01T19:15:00,0,20807335,195015
OK,65,56,742,65,2014-08-01T19:20:00,0,20807784,195015
OK,66,55,742,66,2014-08-01T19:25:00,1,20808233,195015
OK,66,55,742,66,2014-08-01T19:30:00,1,20808682,195015
OK,65,56,742,65,2014-08-01T19:35:00,2,20809131,195015
OK,64,57,742,64,2014-08-01T19:40:00,1,20809580,195015
OK,64,57,742,64,2014-08-01T19:45:00,0,20810029,195015
OK,64,57,742,64,2014-08-01T19:50:00,0,20810478,195015
OK,64,57,742,64,2014-08-01T19:55:00,0,20810927,195015
OK,72,50,742,72,2014-08-01T20:20:00,1,20812164,195015
OK,54,67,742,54,2014-08-01T21:20:00,0,20814713,195015
OK,54,67,742,54,2014-08-01T22:00:00,0,20816656,195015
OK,54,67,742,54,2014-08-01T22:05:00,0,20817105,195015
OK,54,67,742,54,2014-08-01T22:10:00,0,20817427,195015
OK,54,67,742,54,2014-08-01T22:15:00,0,20817856,195015
OK,74,49,742,74,2014-08-01T22:20:00,1,20818146,195015
OK,74,49,742,74,2014-08-01T22:25:00,0,20818462,195015
OK,74,49,742,74,2014-08-01T22:30:00,0,20818796,195015
OK,74,49,742,74,2014-08-01T22:40:00,0,20819280,195015
OK,67,54,742,67,2014-08-01T23:40:00,0,20821981,195015
OK,67,54,742,67,2014-08-01T23:45:00,0,20822204,195015
OK,67,54,742,67,2014-08-01T23:55:00,0,20822797,195015
OK,67,54,742,67,2014-08-02T00:00:00,0,20823095,195015
OK,67,54,742,67,2014-08-02T00:05:00,0,20823544,195015
OK,67,54,742,67,2014-08-02T00:10:00,0,20823993,195015
OK,67,54,742,67,2014-08-02T00:15:00,0,20824442,195015
OK,67,54,742,67,2014-08-02T00:20:00,0,20824891,195015
OK,67,54,742,67,2014-08-02T00:25:00,0,20825340,195015
OK,67,54,742,67,2014-08-02T00:30:00,0,20825789,195015
OK,67,54,742,67,2014-08-02T00:35:00,0,20826238,195015
OK,67,54,742,67,2014-08-02T00:40:00,0,20826687,195015
OK,67,54,742,67,2014-08-02T00:45:00,0,20827136,195015
OK,67,54,742,67,2014-08-02T00:50:00,0,20827585,195015
OK,67,54,742,67,2014-08-02T00:55:00,0,20828034,195015
OK,67,54,742,67,2014-08-02T01:00:00,0,20828483,195015
OK,67,54,742,67,2014-08-02T01:05:00,0,20828932,195015
OK,67,54,742,67,2014-08-02T01:10:00,0,20829381,195015
OK,67,54,742,67,2014-08-02T01:15:00,0,20829830,195015
OK,67,54,742,67,2014-08-02T01:20:00,0,20830279,195015
OK,67,54,742,67,2014-08-02T01:25:00,0,20830728,195015
OK,67,54,742,67,2014-08-02T01:30:00,0,20831177,195015
OK,67,54,742,67,2014-08-02T01:35:00,0,20831626,195015
OK,67,54,742,67,2014-08-02T01:40:00,0,20832075,195015
OK,67,54,742,67,2014-08-02T01:45:00,0,20832524,195015
OK,67,54,742,67,2014-08-02T01:50:00,0,20832973,195015
OK,67,54,742,67,2014-08-02T01:55:00,0,20833422,195015
OK,67,54,742,67,2014-08-02T02:00:00,0,20833871,195015
OK,67,54,742,67,2014-08-02T02:05:00,0,20834320,195015
OK,67,54,742,67,2014-08-02T02:10:00,0,20834769,195015
OK,67,54,742,67,2014-08-02T02:15:00,0,20835218,195015
OK,67,54,742,67,2014-08-02T02:20:00,0,20835667,195015
OK,67,54,742,67,2014-08-02T02:25:00,0,20836116,195015
OK,67,54,742,67,2014-08-02T02:30:00,0,20836565,195015
OK,67,54,742,67,2014-08-02T02:35:00,0,20837014,195015
OK,67,54,742,67,2014-08-02T02:40:00,0,20837463,195015
OK,67,54,742,67,2014-08-02T02:45:00,0,20837912,195015
OK,67,54,742,67,2014-08-02T02:50:00,0,20838361,195015
OK,67,54,742,67,2014-08-02T02:55:00,0,20838810,195015
OK,67,54,742,67,2014-08-02T03:00:00,0,20839259,195015
OK,67,54,742,67,2014-08-02T03:05:00,0,20839708,195015
OK,67,54,742,67,2014-08-02T03:10:00,0,20840157,195015
OK,67,54,742,67,2014-08-02T03:15:00,0,20840606,195015
OK,67,54,742,67,2014-08-02T03:20:00,0,20841055,195015
OK,67,54,742,67,2014-08-02T03:25:00,0,20841504,195015
OK,67,54,742,67,2014-08-02T03:30:00,0,20841953,195015
OK,67,54,742,67,2014-08-02T03:35:00,0,20842402,195015
OK,67,54,742,67,2014-08-02T03:40:00,0,20842851,195015
OK,67,54,742,67,2014-08-02T03:45:00,0,20843300,195015
OK,67,54,742,67,2014-08-02T03:50:00,0,20843749,195015
OK,67,54,742,67,2014-08-02T03:55:00,0,20844198,195015
OK,67,54,742,67,2014-08-02T04:05:00,0,20844778,195015
OK,67,54,742,67,2014-08-02T04:10:00,0,20845108,195015
OK,67,54,742,67,2014-08-02T04:15:00,0,20845288,195015
OK,67,54,742,67,2014-08-02T04:20:00,0,20845644,195015
OK,67,54,742,67,2014-08-02T04:30:00,0,20846200,195015
OK,67,54,742,67,2014-08-02T04:35:00,0,20846567,195015
OK,58,63,742,58,2014-08-02T04:40:00,1,20846950,195015
OK,58,63,742,58,2014-08-02T04:45:00,1,20847209,195015
OK,58,63,742,58,2014-08-02T04:50:00,0,20847575,195015
OK,58,63,742,58,2014-08-02T05:00:00,0,20848292,195015
OK,74,49,742,74,2014-08-02T05:10:00,1,20848809,195015
OK,74,49,742,74,2014-08-02T05:15:00,0,20849002,195015
OK,74,49,742,74,2014-08-02T05:20:00,0,20849346,195015
OK,74,49,742,74,2014-08-02T05:40:00,0,20850436,195015
OK,74,49,742,74,2014-08-02T05:45:00,0,20850737,195015
OK,74,49,742,74,2014-08-02T05:50:00,0,20851095,195015
OK,63,58,742,63,2014-08-02T05:55:00,1,20851349,195015
OK,63,58,742,63,2014-08-02T06:00:00,1,20851652,195015
OK,63,58,742,63,2014-08-02T06:05:00,0,20852101,195015
OK,63,58,742,63,2014-08-02T06:10:00,0,20852550,195015
OK,63,58,742,63,2014-08-02T06:15:00,0,20852999,195015
OK,63,58,742,63,2014-08-02T06:20:00,0,20853448,195015
OK,76,48,742,76,2014-08-02T06:25:00,2,20853897,195015
OK,76,48,742,76,2014-08-02T06:30:00,0,20854346,195015
OK,75,48,742,75,2014-08-02T06:35:00,2,20854795,195015
OK,75,48,742,75,2014-08-02T06:40:00,2,20855244,195015
OK,75,48,742,75,2014-08-02T06:45:00,0,20855693,195015
OK,62,59,742,62,2014-08-02T06:50:00,1,20856142,195015
OK,54,67,742,54,2014-08-02T06:55:00,0,20856591,195015
OK,54,67,742,54,2014-08-02T07:00:00,0,20857040,195015
OK,54,67,742,54,2014-08-02T07:05:00,0,20857489,195015
OK,54,67,742,54,2014-08-02T07:10:00,0,20857938,195015
OK,54,67,742,54,2014-08-02T07:15:00,0,20858387,195015
OK,54,67,742,54,2014-08-02T07:20:00,1,20858836,195015
OK,54,67,742,54,2014-08-02T07:25:00,1,20859285,195015
OK,54,67,742,54,2014-08-02T07:30:00,0,20859734,195015
OK,73,50,742,73,2014-08-02T07:35:00,1,20860183,195015
OK,51,71,742,51,2014-08-02T07:40:00,1,20860632,195015
OK,55,66,742,55,2014-08-02T07:45:00,2,20861081,195015
OK,69,53,742,69,2014-08-02T07:50:00,2,20861530,195015
OK,71,51,742,71,2014-08-02T07:55:00,5,20861979,195015
OK,69,53,742,69,2014-08-02T08:00:00,4,20862428,195015
OK,69,53,742,69,2014-08-02T08:05:00,1,20862877,195015
OK,78,46,742,78,2014-08-02T08:10:00,2,20863326,195015
OK,67,54,742,67,2014-08-02T08:15:00,4,20863775,195015
OK,65,56,742,65,2014-08-02T08:20:00,1,20864224,195015
OK,65,56,742,65,2014-08-02T08:25:00,0,20864673,195015
OK,65,56,742,65,2014-08-02T08:30:00,4,20865122,195015
OK,68,53,742,68,2014-08-02T08:35:00,3,20865571,195015
OK,70,52,742,70,2014-08-02T08:40:00,0,20866020,195015
OK,70,52,742,70,2014-08-02T08:45:00,0,20866469,195015
OK,81,45,742,81,2014-08-02T08:50:00,1,20866918,195015
OK,81,45,742,81,2014-08-02T08:55:00,1,20867367,195015
OK,79,46,742,79,2014-08-02T09:00:00,3,20867816,195015
OK,72,50,742,72,2014-08-02T09:05:00,4,20868265,195015
OK,73,50,742,73,2014-08-02T09:10:00,3,20868714,195015
OK,73,50,742,73,2014-08-02T09:15:00,3,20869163,195015
OK,73,50,742,73,2014-08-02T09:20:00,2,20869612,195015
OK,79,46,742,79,2014-08-02T09:25:00,0,20870061,195015
OK,66,55,742,66,2014-08-02T09:30:00,2,20870510,195015
OK,79,46,742,79,2014-08-02T09:35:00,3,20870959,195015
OK,70,52,742,70,2014-08-02T09:40:00,1,20871408,195015
OK,65,56,742,65,2014-08-02T09:45:00,3,20871857,195015
OK,72,50,742,72,2014-08-02T09:50:00,3,20872306,195015
OK,75,48,742,75,2014-08-02T09:55:00,3,20872755,195015
OK,76,48,742,76,2014-08-02T10:00:00,3,20873204,195015
OK,76,48,742,76,2014-08-02T10:05:00,1,20873653,195015
OK,62,59,742,62,2014-08-02T10:10:00,2,20874102,195015
OK,69,53,742,69,2014-08-02T10:15:00,3,20874551,195015
OK,69,53,742,69,2014-08-02T10:20:00,4,20875000,195015
OK,70,52,742,70,2014-08-02T10:25:00,3,20875449,195015
OK,68,53,742,68,2014-08-02T10:30:00,0,20875898,195015
OK,64,57,742,64,2014-08-02T10:35:00,1,20876347,195015
OK,78,46,742,78,2014-08-02T10:40:00,4,20876796,195015
OK,78,46,742,78,2014-08-02T10:45:00,3,20877245,195015
OK,69,53,742,69,2014-08-02T10:50:00,1,20877694,195015
OK,54,67,742,54,2014-08-02T10:55:00,2,20878143,195015
OK,54,67,742,54,2014-08-02T11:00:00,0,20878592,195015
OK,54,67,742,54,2014-08-02T11:05:00,0,20879041,195015
OK,68,53,742,68,2014-08-02T11:10:00,1,20879490,195015
OK,68,53,742,68,2014-08-02T11:15:00,6,20879939,195015
OK,68,53,742,68,2014-08-02T11:20:00,5,20880388,195015
OK,67,54,742,67,2014-08-02T11:25:00,1,20880837,195015
OK,70,52,742,70,2014-08-02T11:30:00,2,20881286,195015
OK,66,55,742,66,2014-08-02T11:35:00,4,20881735,195015
OK,69,53,742,69,2014-08-02T11:40:00,4,20882184,195015
OK,71,51,742,71,2014-08-02T11:45:00,6,20882633,195015
OK,69,53,742,69,2014-08-02T11:50:00,5,20883082,195015
OK,74,49,742,74,2014-08-02T11:55:00,7,20883531,195015
OK,74,49,742,74,2014-08-02T12:00:00,6,20883980,195015
OK,65,56,742,65,2014-08-02T12:05:00,2,20884429,195015
OK,63,58,742,63,2014-08-02T12:10:00,3,20884878,195015
OK,65,56,742,65,2014-08-02T12:15:00,4,20885327,195015
OK,66,55,742,66,2014-08-02T12:20:00,3,20885776,195015
OK,65,56,742,65,2014-08-02T12:25:00,3,20886225,195015
OK,66,55,742,66,2014-08-02T12:30:00,4,20886674,195015
OK,68,53,742,68,2014-08-02T12:35:00,2,20887123,195015
OK,64,57,742,64,2014-08-02T12:40:00,0,20887572,195015
OK,63,58,742,63,2014-08-02T12:45:00,1,20888021,195015
OK,73,50,742,73,2014-08-02T12:50:00,5,20888470,195015
OK,76,48,742,76,2014-08-02T12:55:00,5,20888919,195015
OK,76,48,742,76,2014-08-02T13:00:00,1,20889368,195015
OK,76,48,742,76,2014-08-02T13:05:00,0,20889817,195015
OK,66,55,742,66,2014-08-02T13:10:00,2,20890266,195015
OK,67,54,742,67,2014-08-02T13:15:00,2,20890715,195015
OK,67,54,742,67,2014-08-02T13:20:00,0,20891164,195015
OK,67,54,742,67,2014-08-02T13:25:00,0,20891613,195015
OK,75,48,742,75,2014-08-02T13:30:00,2,20892062,195015
OK,75,48,742,75,2014-08-02T13:35:00,2,20892511,195015
OK,73,50,742,73,2014-08-02T13:40:00,0,20892960,195015
OK,63,58,742,63,2014-08-02T13:45:00,2,20893409,195015
OK,64,57,742,64,2014-08-02T13:50:00,3,20893858,195015
OK,65,56,742,65,2014-08-02T13:55:00,0,20894307,195015
OK,65,56,742,65,2014-08-02T14:00:00,0,20894756,195015
OK,65,56,742,65,2014-08-02T14:05:00,0,20895205,195015
OK,70,52,742,70,2014-08-02T14:10:00,5,20895654,195015
OK,64,57,742,64,2014-08-02T14:15:00,4,20896103,195015
OK,105,34,742,105,2014-08-02T14:20:00,1,20896552,195015
OK,82,44,742,82,2014-08-02T14:25:00,2,20897001,195015
OK,61,60,742,61,2014-08-02T14:30:00,3,20897450,195015
OK,64,57,742,64,2014-08-02T14:35:00,1,20897899,195015
OK,68,53,742,68,2014-08-02T14:40:00,2,20898348,195015
OK,73,50,742,73,2014-08-02T14:45:00,3,20898797,195015
OK,78,46,742,78,2014-08-02T14:50:00,2,20899246,195015
OK,83,44,742,83,2014-08-02T14:55:00,0,20899695,195015
OK,83,44,742,83,2014-08-02T15:00:00,0,20900144,195015
OK,77,47,742,77,2014-08-02T15:05:00,1,20900593,195015
OK,77,47,742,77,2014-08-02T15:10:00,1,20901042,195015
OK,65,56,742,65,2014-08-02T15:15:00,3,20901491,195015
OK,67,54,742,67,2014-08-02T15:20:00,3,20901940,195015
OK,71,51,742,71,2014-08-02T15:25:00,2,20902389,195015
OK,71,51,742,71,2014-08-02T15:30:00,2,20902838,195015
OK,62,59,742,62,2014-08-02T15:35:00,1,20903287,195015
OK,62,59,742,62,2014-08-02T15:40:00,1,20903736,195015
OK,74,49,742,74,2014-08-02T15:45:00,2,20904185,195015
OK,76,48,742,76,2014-08-02T15:50:00,0,20904634,195015
OK,76,48,742,76,2014-08-02T15:55:00,0,20905083,195015
OK,76,48,742,76,2014-08-02T16:00:00,0,20905532,195015
OK,76,48,742,76,2014-08-02T16:05:00,0,20905981,195015
OK,76,48,742,76,2014-08-02T16:10:00,0,20906430,195015
OK,76,48,742,76,2014-08-02T16:15:00,0,20906879,195015
OK,67,54,742,67,2014-08-02T16:20:00,2,20907328,195015
OK,62,59,742,62,2014-08-02T16:25:00,2,20907777,195015
OK,59,62,742,59,2014-08-02T16:30:00,1,20908226,195015
OK,59,62,742,59,2014-08-02T16:35:00,0,20908675,195015
OK,59,62,742,59,2014-08-02T16:40:00,0,20909124,195015
OK,59,62,742,59,2014-08-02T16:45:00,0,20909573,195015
OK,59,62,742,59,2014-08-02T16:50:00,0,20910022,195015
OK,64,57,742,64,2014-08-02T16:55:00,1,20910471,195015
OK,63,58,742,63,2014-08-02T17:00:00,1,20910920,195015
OK,63,58,742,63,2014-08-02T17:05:00,1,20911369,195015
OK,63,58,742,63,2014-08-02T17:10:00,0,20911818,195015
OK,63,58,742,63,2014-08-02T17:15:00,0,20912267,195015
OK,63,58,742,63,2014-08-02T17:20:00,0,20912716,195015
OK,74,49,742,74,2014-08-02T17:25:00,1,20913165,195015
OK,71,51,742,71,2014-08-02T17:30:00,2,20913614,195015
OK,73,50,742,73,2014-08-02T17:35:00,1,20914063,195015
OK,60,61,742,60,2014-08-02T17:40:00,1,20914512,195015
OK,60,61,742,60,2014-08-02T17:45:00,1,20914961,195015
OK,65,56,742,65,2014-08-02T17:50:00,2,20915410,195015
OK,68,53,742,68,2014-08-02T17:55:00,1,20915859,195015
OK,68,53,742,68,2014-08-02T18:00:00,0,20916308,195015
OK,83,44,742,83,2014-08-02T18:05:00,2,20916757,195015
OK,83,44,742,83,2014-08-02T18:10:00,2,20917206,195015
OK,83,44,742,83,2014-08-02T18:15:00,0,20917655,195015
OK,83,44,742,83,2014-08-02T18:20:00,0,20918104,195015
OK,65,56,742,65,2014-08-02T18:25:00,2,20918553,195015
OK,59,62,742,59,2014-08-02T18:30:00,1,20919002,195015
OK,59,62,742,59,2014-08-02T18:35:00,0,20919451,195015
OK,64,57,742,64,2014-08-02T18:40:00,1,20919900,195015
OK,74,49,742,74,2014-08-02T18:45:00,2,20920349,195015
OK,66,55,742,66,2014-08-02T18:50:00,1,20920798,195015
OK,67,54,742,67,2014-08-02T18:55:00,5,20921247,195015
OK,64,57,742,64,2014-08-02T19:00:00,6,20921696,195015
OK,62,59,742,62,2014-08-02T19:05:00,1,20922145,195015
OK,62,59,742,62,2014-08-02T19:10:00,0,20922594,195015
OK,87,42,742,87,2014-08-02T19:15:00,1,20923043,195015
OK,73,50,742,73,2014-08-02T19:20:00,2,20923492,195015
OK,59,62,742,59,2014-08-02T19:25:00,0,20923941,195015
OK,59,62,742,59,2014-08-02T19:30:00,0,20924390,195015
OK,62,59,742,62,2014-08-02T19:35:00,2,20924839,195015
OK,61,60,742,61,2014-08-02T19:40:00,4,20925288,195015
OK,59,62,742,59,2014-08-02T19:45:00,2,20925737,195015
OK,57,64,742,57,2014-08-02T19:50:00,0,20926186,195015
OK,57,64,742,57,2014-08-02T19:55:00,0,20926635,195015
OK,81,45,742,81,2014-08-02T20:00:00,1,20927084,195015
OK,78,46,742,78,2014-08-02T20:05:00,2,20927533,195015
OK,75,48,742,75,2014-08-02T20:10:00,0,20927982,195015
OK,75,48,742,75,2014-08-02T20:15:00,0,20928431,195015
OK,79,46,742,79,2014-08-02T20:20:00,1,20928880,195015
OK,79,46,742,79,2014-08-02T20:25:00,1,20929329,195015
OK,79,46,742,79,2014-08-02T20:30:00,0,20929778,195015
OK,74,49,742,74,2014-08-02T20:35:00,0,20930227,195015
OK,73,50,742,73,2014-08-02T20:40:00,2,20930676,195015
OK,70,52,742,70,2014-08-02T20:45:00,1,20931125,195015
OK,70,52,742,70,2014-08-02T20:50:00,0,20931574,195015
OK,70,52,742,70,2014-08-02T20:55:00,0,20932023,195015
OK,84,43,742,84,2014-08-02T21:00:00,1,20932472,195015
OK,76,48,742,76,2014-08-02T21:05:00,1,20932921,195015
OK,76,48,742,76,2014-08-02T21:10:00,1,20933370,195015
OK,63,58,742,63,2014-08-02T21:15:00,2,20933819,195015
OK,65,56,742,65,2014-08-02T21:20:00,3,20934268,195015
OK,63,58,742,63,2014-08-02T21:25:00,0,20934717,195015
OK,84,43,742,84,2014-08-02T21:30:00,1,20935166,195015
OK,66,55,742,66,2014-08-02T21:35:00,1,20935615,195015
OK,66,55,742,66,2014-08-02T21:40:00,0,20936064,195015
OK,66,55,742,66,2014-08-02T21:45:00,0,20936513,195015
OK,59,62,742,59,2014-08-02T21:50:00,1,20936962,195015
OK,59,62,742,59,2014-08-02T21:55:00,1,20937411,195015
OK,59,62,742,59,2014-08-02T22:00:00,0,20937860,195015
OK,55,66,742,55,2014-08-02T22:05:00,1,20938309,195015
OK,60,61,742,60,2014-08-02T22:10:00,2,20938758,195015
OK,66,55,742,66,2014-08-02T22:15:00,0,20939207,195015
OK,66,55,742,66,2014-08-02T22:20:00,0,20939656,195015
OK,66,55,742,66,2014-08-02T22:25:00,0,20940105,195015
OK,66,55,742,66,2014-08-02T22:30:00,0,20940554,195015
OK,66,55,742,66,2014-08-02T22:35:00,0,20941003,195015
OK,66,55,742,66,2014-08-02T22:40:00,0,20941452,195015
OK,66,55,742,66,2014-08-02T22:45:00,0,20941901,195015
OK,66,55,742,66,2014-08-02T22:50:00,0,20942350,195015
OK,66,55,742,66,2014-08-02T22:55:00,0,20942799,195015
OK,66,55,742,66,2014-08-02T23:00:00,0,20943248,195015
OK,66,55,742,66,2014-08-02T23:10:00,0,20943697,195015
OK,66,55,742,66,2014-08-02T23:15:00,0,20944146,195015
OK,66,55,742,66,2014-08-02T23:20:00,0,20944595,195015
OK,66,55,742,66,2014-08-02T23:25:00,0,20945044,195015
OK,66,55,742,66,2014-08-02T23:30:00,0,20945493,195015
OK,66,55,742,66,2014-08-02T23:35:00,0,20945942,195015